Regional Weather Roundup
Issued by NWS Wakefield, VA

Home | Current Version | Previous Version | Graphics & Text | Print | Product List | Glossary On
Versions: 1 2 3 4 5 6 7 8 9 10 11 12 13 14 15 16 17 18 19 20 21 22 23 24 25 26 27 28 29 30 31 32 33 34 35 36 37 38 39 40 41 42 43 44 45 46 47 48 49 50
000
ASUS41 KAKQ 300110
RWRAKQ

REGIONAL WEATHER ROUNDUP
NATIONAL WEATHER SERVICE WAKEFIELD VA
900 PM EDT TUE JUL 29 2014

Note: "fair" indicates few or no clouds below 12,000 feet with no
significant weather and/or obstructions to visibility. * = Denotes
station may not report precipitation (e.g., rain,snow,etc.),
thunder or fog.

VAZ042-051-052>054-056-300200-
NORTHERN VIRGINIA

CITY           SKY/WX    TMP DP  RH WIND       PRES   REMARKS
WASH NATIONAL  MOCLDY    71  47  42 NW13      30.00R
DULLES         PTCLDY    66  45  46 NW6       30.00S
FORT BELVOIR   NOT AVBL
QUANTICO       MOCLDY    67  51  56 NW5       30.01R
FREDERICKSBRG* PTCLDY    69  53  55 N7        30.00R
STAFFORD*      CLEAR     60  59  96 CALM      30.05R
WARRENTON      MOCLDY    61  60  96 CALM      30.01R
CULPEPER*      MOCLDY   N/A N/A N/A CALM      30.02R
MANASSAS*      CLEAR     63  54  72 CALM      30.01R
LEESBURG*      CLEAR     63  54  72 CALM      30.01S
WINCHESTER     CLEAR     63  46  55 NW3       30.02R
$$

VAZ048-049-060>072-079>083-300200-
CENTRAL AND SOUTH CENTRAL VIRGINIA...AND NORTH CENTRAL NORTH CAROLINA

CITY           SKY/WX    TMP DP  RH WIND       PRES   REMARKS
RICHMOND       MOCLDY    74  56  53 N10       29.98R
CHESTERFIELD*  CLOUDY    72  54  53 CALM      29.99R
HANOVER        CLOUDY    71  57  61 VRB5      30.00R
TAPPAHANNOCK*  PTCLDY    67  55  64 CALM      30.00R
CHARLOTTSVILLE MOCLDY    69  55  60 NE7       30.01R
ORANGE*        CLOUDY    68  52  56 N3        30.03R
LOUISA*        CLOUDY    68  55  64 NE6       30.00R
FARMVILLE*     MOCLDY    66  57  72 CALM      29.97R
SOUTH HILL*    CLEAR     70  63  78 CALM      30.03R
ROANOKE RAPIDS NOT AVBL
RALEIGH        PTCLDY    71  62  73 CALM      29.97R
$$

VAZ088>098-300200-
SOUTHEAST VIRGINIA

CITY           SKY/WX    TMP DP  RH WIND       PRES   REMARKS
NORFOLK        CLEAR     72  56  57 E3        29.97R
VIRGINIA BEACH PTCLDY    69  60  73 CALM      29.96R
NORFOLK NAVAL  PTCLDY    73  56  54 E3        29.99R
WEST POINT*    CLOUDY    72  59  63 NE3       29.99R
NEWPORT NEWS   CLEAR     71  59  65 NE3       29.98R
LANGLEY AFB    PTCLDY    72  57  57 E5        29.97R
FORT EUSTIS    PTCLDY    73  56  54 NE6       29.96R
WILLIAMSBURG*  CLEAR     70  64  83 CALM      29.99R
FRANKLIN*      CLEAR     68  61  77 CALM      29.97R
WAKEFIELD      CLEAR     66  63  90 CALM      29.97R
$$

VAZ020-022-025-037-045-300200-
WESTERN AND SOUTHWEST VIRGINIA

CITY           SKY/WX    TMP DP  RH WIND       PRES   REMARKS
STAUNTON*      CLOUDY    65  54  67 NE3       30.05R
HOT SPRINGS VA PTCLDY    53  46  76 NW8       30.12S
LYNCHBURG      PTCLDY    66  61  84 CALM      30.01R
DANVILLE       CLOUDY    72  62  71 CALM      29.97R
MARTINSVILLE   PTCLDY    67  63  85 CALM      30.01R
ROANOKE        MOCLDY    70  52  52 N9        30.03R
BLACKSBURG     PTCLDY    64  55  72 NW6         N/A
DUBLIN*        CLEAR     65  53  65 NW6       30.08R
MARION*        CLEAR     62  49  62 NW6       30.12R
HILLSVILLE*    MOCLDY    64  51  63 NW12      30.08R
RICHLANDS*     MOCLDY    63  52  66 NW3       30.11S
WISE*          CLEAR     59  46  63 CALM      30.12S
ABINGDON*      CLEAR     65  50  59 N3        30.09R
$$

MDZ021>025-VAZ099-100-300200-
SOUTHERN MARYLAND AND THE DELMARVA PENINSULA

CITY           SKY/WX    TMP DP  RH WIND       PRES   REMARKS
PATUXENT RIVER PTCLDY    65  51  60 W6        29.98R
BAY BRIDGE APT   N/A     70  50  49 NW12      29.98R
LEONARDTOWN    CLEAR     63  52  67 CALM      30.01R
DOVER          CLEAR     68  56  66 W5        29.95S
GEORGETOWN     CLEAR     64  55  72 S7        29.98R
EASTON         CLEAR     68  57  68 CALM      30.01R
CAMBRIDGE      CLEAR     64  52  63 CALM      29.97S
SALISBURY      NOT AVBL
OCEAN CITY     CLEAR     60  55  83 CALM      29.97R
WALLOPS ISLAND CLEAR     70  55  59 N3        29.98R
ACCOMACK*        N/A     66  59  77 CALM      29.97R
$$

NCZ012>017-030>032-300200-
EASTERN NORTH CAROLINA

CITY           SKY/WX    TMP DP  RH WIND       PRES   REMARKS
ELIZABETH CITY CLEAR     71  61  70 E8        29.97R
AHOSKIE*       CLEAR     67  64  89 CALM      29.97R
EDENTON*       CLEAR     71  65  82 NE5       29.96R
CURRITUCK*     CLEAR     72  57  58 NE3       29.98R
KILL DEVIL HLS CLEAR     73  62  69 NE6       29.96R
MANTEO         NOT AVBL
CAPE HATTERAS  PTCLDY    75  65  70 NE8G16    29.96R
GOLDSBORO      CLEAR     72  66  79 E3        29.94R
WASHINGTON     CLEAR     71  62  73 CALM      29.95S
GREENVILLE     CLEAR     70  63  78 CALM      29.98R
NEW BERN       CLEAR     76  64  66 NE7       29.96R
WILMINGTON     MOCLDY    74  71  91 E7        29.95R
$$

VAZ048-300200-
ELSEWHERE

CITY           SKY/WX    TMP DP  RH WIND       PRES   REMARKS
HARRISBURG PA  MOCLDY    65  53  65 NW6       29.98S
BALTIMORE      PTCLDY    67  51  56 NW5       29.98S
ANNAPOLIS      CLEAR     69  53  56 NW6       29.98R
ANDREWS AFB    CLEAR     68  49  49 W3        29.99R
WILMINGTON DE  CLOUDY    68  58  70 NW6       29.97S
PHILADELPHIA   CLOUDY    73  53  49 NW8       29.96S
WILDWOOD NJ*   CLEAR     66  57  72 S7        29.97S
ATLANTIC CITY  CLOUDY    71  58  63 W3        29.95S
HENDERSON NC   CLEAR     68  62  79 CALM      29.98R
GREENSBORO     PTCLDY    74  56  53 CALM      29.97R
ROCKY MOUNT    CLEAR     68  61  78 CALM      29.96R
FAYETTEVILLE   CLEAR     75  61  61 E6        29.94R
CHARLOTTE      PTCLDY    75  53  46 CALM      29.98R
$$

VAZ100-300200-
MARINE

STATION/POSITION TIME  TEMP    WIND        PRES    WAVE   SWELL
                       AIR SEA DIR/SP/G            HT/PER HT/PER
                 (UTC) (F)     (DEG/KT/KT) (MB)    (FT/S) (FT/S)
44066 TX TWR #4  0100   71 75  240/  4/  6 1014.2R   3/ 8   3/ 8
CAPE MAY NJ      0100   69 79  180/  5/  8 1014.2R
LEWES DE         0100   69 74  260/  5/  6 1014.4R
15NM E FENWICK I 0100   72 75              1014.7R   2/ 8
OCEAN-CITY-INLET 0100   71 72  330/  5/  6 1014.3S
WACHAPREAGUE VA  0100   70 80  320/  1/  2 1015.0R
THOMAS POINT MD  0100   70 78  320/ 10/ 12 1015.6R
GOOSES REEF MD   0100   73     340/ 14/ 16 1015.4S
COVE POINT MD    0100   71     320/  8/ 11 1015.0R
SOLOMONS ISLAND  0100      80                N/A
BISHOPS HEAD MD  0100   69 78  330/  5/  6 1014.6R
PINEY POINT MD   0100           10/  9/ 10   N/A
POTOMAC MD       0100   73     360/  8/ 10 1014.4R
CAMBRIDGE MD     0100   73 79  320/  9/ 11 1014.5R
LEWISETTA VA     0100   73 78  350/  7/  9 1015.1R
RAPPAHANNOCK LGT 0100          340/  9/ 12 1015.4R
STINGRAY PT      0100   74     350/ 12/ 14 1015.4S
YORK RVR RNG VA  0100   75      60/  9/ 10 1014.4R
YORKTOWN VA      0100   75 80   50/  9/ 11 1014.6R
JAMESTOWN VA     0100   72      40/  4/  6   N/A
DOMINION TERM VA 0100   76      80/  7/  9 1014.8R
KIPTOPEKE VA     0100      82   40/  4/  5   N/A
CHES BAY BRIDGE  0100   75 78   80/  5/  6 1014.2R
CAPE HENRY VA    0100   74      80/  6/  7 1013.6R
WILLOUBY STN VA  0100           90/  5/  6 1014.1R
S CRANEY ISL VA  0100           60/  7/  8 1014.8R
CAPE HENRY BUOY  0100      78                N/A     2/ 8
1ST LANDING BUOY 0100   74     100/  6/  8 1014.4R
CAPE CHARLES BUO 0100      76                N/A     2/ 8
OFFSHORE WE BUOY 0100      78                N/A     2/ 8
64NM E OF VA BCH 0100   74 79   20/ 10/ 12 1014.5R   2/ 8   2/ 8
DUCK PIER NC     0100   74 73   50/ 11/ 12 1013.9R
44056 DUCK FRF   0100                        N/A     2/ 8
OREGON INLET NC  0100   74 78   30/  9/ 13 1014.5R
HATTERAS NC      0100   76 82   50/  7/ 12 1014.8R
DIAMOND SHLS NC  0100          VRB 16/ 19  1013.7R   4/ 7   2/ 8
CAPE LOOKOUT NC  0000   78      60/ 14/ 16 1013.1R
$$


USA.gov is the U.S. government's official web portal to all federal, state and local government web resources and services.